Regional Weather Roundup
Issued by NWS

Home | Current Version | Previous Version | Text Only | Print | Product List | Glossary On
Versions: 1 2 3 4 5 6 7 8 9 10 11 12 13 14 15 16 17 18 19 20 21 22 23 24 25 26 27 28 29 30 31 32 33 34 35 36 37 38 39 40 41 42 43 44 45 46 47 48 49 50
000
ASUS43 KTOP 010308
RWRKS

WEATHER ROUNDUP FOR KANSAS
NATIONAL WEATHER SERVICE GOODLAND KS
900 PM CST SAT JAN 31 2015

NOTE:  "FAIR" INDICATES FEW OR NO CLOUDS BELOW 12,000 FEET WITH NO
SIGNIFICANT WEATHER AND/OR OBSTRUCTIONS TO VISIBILITY.

KSZ001>006-013>018-027>032-041>047-010400-
NORTHWEST KANSAS

CITY           SKY/WX    TMP DP  RH WIND       PRES   REMARKS
GOODLAND       LGT SNOW  32  31  96 N13       29.81S FOG     WCI  22
HAYS           CLOUDY    39  32  75 S6        29.77F
HILL CITY      LGT RAIN  35  33  92 N13       29.79S WCI  26
RUSSELL        RAIN      39  39 100 S10       29.77F WCI  32
$$

KSZ061>065-074>080-084>089-010400-
SOUTHWEST KANSAS

CITY           SKY/WX    TMP DP  RH WIND       PRES   REMARKS
DODGE CITY     LGT RAIN  40  38  93 SW9       29.78F
ELKHART          N/A     41  35  79 NW7         N/A
GARDEN CITY    CLOUDY    38  36  92 NW12      29.78S WCI  30
LIBERAL        CLOUDY    41  36  81 SW9       29.81S
PRATT          LGT RAIN  39  37  93 S9        29.80F
$$

KSZ066>073-081>083-090>101-010400-
SOUTHEAST KANSAS

CITY           SKY/WX    TMP DP  RH WIND       PRES   REMARKS
CHANUTE        LGT RAIN  39  38  96 S13       29.91F FOG     WCI  31
COFFEYVILLE    LGT RAIN  39  38  96 SE8       29.91F FOG
HUTCHINSON     CLOUDY    40  37  89 S13       29.83F WCI  32
MEDICINE LODGE   N/A     41  40  96 S10       29.83F
NEWTON         CLOUDY    37  34  87 S15       29.85F WCI  28
PARSONS        LGT RAIN  39  39 100 S6        29.91F FOG
WICHITA INTL   CLOUDY    39  38  96 S16       29.85F WCI  30
WICHITA JABRA  LGT RAIN  39  39 100 S13       29.85F WCI  31
WICHITA MCCONL LGT RAIN  39  38  96 S15       29.85F WCI  31
WINFIELD       LGT RAIN  40  31  70 S14G23    29.87F WCI  32
$$

KSZ007>012-019>026-033>040-048>060-102>105-010400-
NORTHEAST KANSAS

CITY           SKY/WX    TMP DP  RH WIND       PRES   REMARKS
CONCORDIA      LGT RAIN  36  36 100 S9        29.81F FOG
EMPORIA        LGT RAIN  37  36  96 S14       29.87F WCI  28
LAWRENCE       LGT SNOW  33  32  96 SE9       29.92F FOG
MANHATTAN      LGT RAIN  36  36 100 SE5       29.87F
MARYSVILLE     LGT SNOW  32  32 100 SE6       29.85F
OLATHE IND     MIX PCPN  34  33  96 SE8       29.92F
OLATHE EXE     LGT SNOW  34  33  96 SE8       29.91F FOG
SALINA         LGT RAIN  40  37  89 S8        29.82F
TOPEKA BILLARD LGT SNOW  34  33  96 SE10      29.90F FOG     WCI  26
TOPEKA FORBES  LGT SNOW  35  33  92 SE10      29.88F FOG     WCI  27
$$


USA.gov is the U.S. government's official web portal to all federal, state and local government web resources and services.